Clinton, MO

6:56 AM CDT on June 28, 2017 (GMT -0500)
Clinton Memorial

Weather History for KGLY - November, 2011

Change the Weather History Date:

Sunday, November 20, 2011

  Actual Average (KSZL) Record (KSZL)
Temperature  
Mean Temperature 35 °F -  
Max Temperature 37 °F 51 °F 74 °F (2007)
Min Temperature 33 °F 34 °F 13 °F (2014)
Degree Days  
Heating Degree Days 30    
Moisture  
Dew Point 31 °F    
Average Humidity 83    
Maximum Humidity 87    
Minimum Humidity 75    
Precipitation  
Precipitation 0.00 in - - ()
Sea Level Pressure  
Sea Level Pressure 30.18 in    
Wind  
Wind Speed 10 mph (NNE)    
Max Wind Speed 14 mph    
Max Gust Speed 17 mph    
Visibility 8 miles    
Events      
Averages and records for this station are not official NWS values.
T = Trace of Precipitation, MM = Missing Value Source: NWS Daily Summary

Daily Weather History Graph

Daily Weather History Graph

Search for Another Location

Airport or City:

Trip Planner

Search our weather history database for the weather conditions in past years. The results will help you decide how hot, cold, wet, or windy it might be!

Date:

Astronomy

Nov. 20, 2011 Rise Set
Actual Time 7:01 AM CST 4:58 PM CST
Civil Twilight 6:32 AM CST 5:27 PM CST
Nautical Twilight 6:00 AM CST 5:59 PM CST
Astronomical Twilight 5:29 AM CST 6:31 PM CST
Moon 1:34 AM CST (11/20) 1:45 PM CST (11/20)
Length of Visible Light 10h 54m
Length of Day
9h 57m
Waning Crescent, 27% of the Moon is Illuminated
Nov 20
Waning Crescent
Nov 25
New
Dec 2
First Quarter
Dec 10
Full
Dec 17
Last Quarter

Hourly Weather History & Observations

Time (CST) Temp. Windchill Dew Point Humidity Pressure Visibility Wind Dir Wind Speed Gust Speed Precip Events Conditions
12:15 AM 37.4 °F 30.8 °F 32.0 °F 81% 30.10 in 7.0 mi North 9.2 mph - N/A   Overcast
12:35 AM 37.4 °F 30.3 °F 32.0 °F 81% 30.11 in 7.0 mi North 10.4 mph - N/A   Overcast
12:55 AM 37.4 °F 32.1 °F 32.0 °F 81% 30.13 in 7.0 mi North 6.9 mph - N/A   Overcast
1:15 AM 35.6 °F 28.0 °F 32.0 °F 87% 30.11 in 6.0 mi North 10.4 mph - N/A   Haze
1:35 AM 35.6 °F 28.0 °F 30.2 °F 81% 30.12 in 7.0 mi North 10.4 mph - N/A   Partly Cloudy
1:55 AM 33.8 °F 26.4 °F 30.2 °F 87% 30.12 in 8.0 mi North 9.2 mph - N/A   Scattered Clouds
2:15 AM 33.8 °F 25.8 °F 30.2 °F 87% 30.13 in 9.0 mi NNE 10.4 mph - N/A   Overcast
2:35 AM 35.6 °F 29.2 °F 30.2 °F 81% 30.14 in 9.0 mi North 8.1 mph - N/A   Overcast
2:55 AM 35.6 °F 27.1 °F 32.0 °F 87% 30.14 in 8.0 mi North 12.7 mph - N/A   Overcast
3:15 AM 35.6 °F 28.0 °F 30.2 °F 81% 30.14 in 8.0 mi NNE 10.4 mph - N/A   Overcast
3:55 AM 33.8 °F 25.8 °F 30.2 °F 87% 30.14 in 8.0 mi North 10.4 mph - N/A   Overcast
4:35 AM 33.8 °F 26.4 °F 30.2 °F 87% 30.16 in 9.0 mi NNE 9.2 mph - N/A   Mostly Cloudy
4:55 AM 33.8 °F 24.8 °F 30.2 °F 87% 30.15 in 8.0 mi NNE 12.7 mph - N/A   Mostly Cloudy
5:35 AM 33.8 °F 25.8 °F 30.2 °F 87% 30.17 in 9.0 mi NNE 10.4 mph - N/A   Partly Cloudy
5:55 AM 33.8 °F 24.3 °F 30.2 °F 87% 30.17 in 9.0 mi NNE 13.8 mph 17.3 mph N/A   Scattered Clouds
6:15 AM 33.8 °F 25.8 °F 30.2 °F 87% 30.17 in 9.0 mi NE 10.4 mph - N/A   Scattered Clouds
6:35 AM 33.8 °F 24.8 °F 30.2 °F 87% 30.16 in 9.0 mi NNE 12.7 mph - N/A   Scattered Clouds
6:55 AM 33.8 °F 27.0 °F 30.2 °F 87% 30.17 in 9.0 mi NE 8.1 mph 17.3 mph N/A   Mostly Cloudy
7:15 AM 33.8 °F 25.3 °F 30.2 °F 87% 30.17 in 9.0 mi NNE 11.5 mph - N/A   Light Drizzle
7:35 AM 33.8 °F 26.4 °F 30.2 °F 87% 30.20 in 9.0 mi NNE 9.2 mph - N/A   Overcast
7:55 AM 33.8 °F 25.8 °F 30.2 °F 87% 30.21 in 10.0 mi NE 10.4 mph - N/A   Overcast
8:15 AM 33.8 °F 25.3 °F 30.2 °F 87% 30.21 in 10.0 mi NE 11.5 mph - N/A   Overcast
8:35 AM 35.6 °F 29.9 °F 30.2 °F 81% 30.23 in 9.0 mi NE 6.9 mph - N/A   Overcast
8:55 AM 35.6 °F 27.5 °F 30.2 °F 81% 30.20 in 7.0 mi NE 11.5 mph - N/A   Overcast
9:15 AM 35.6 °F 28.6 °F 30.2 °F 81% 30.22 in 8.0 mi NE 9.2 mph - N/A   Overcast
9:35 AM 35.6 °F 28.6 °F 30.2 °F 81% 30.23 in 7.0 mi NE 9.2 mph - N/A   Overcast
9:55 AM 35.6 °F 27.5 °F 30.2 °F 81% 30.21 in 7.0 mi NE 11.5 mph - N/A   Overcast
10:35 AM 35.6 °F 27.5 °F 30.2 °F 81% 30.22 in 7.0 mi ENE 11.5 mph - N/A   Light Drizzle
10:55 AM 37.4 °F 29.8 °F 30.2 °F 75% 30.21 in 7.0 mi NE 11.5 mph - N/A   Overcast
11:15 AM 37.4 °F 30.8 °F 30.2 °F 75% 30.21 in 8.0 mi ENE 9.2 mph - N/A   Overcast
11:35 AM 37.4 °F 30.8 °F 30.2 °F 75% 30.21 in 8.0 mi NNE 9.2 mph - N/A   Overcast
11:55 AM 37.4 °F 30.3 °F 30.2 °F 75% 30.22 in 8.0 mi NNE 10.4 mph - N/A   Overcast
12:15 PM 37.4 °F 30.3 °F 32.0 °F 81% 30.21 in 7.0 mi NNE 10.4 mph - N/A   Overcast
12:35 PM 37.4 °F 30.3 °F 32.0 °F 81% 30.21 in 8.0 mi NNE 10.4 mph - N/A   Overcast
12:55 PM 37.4 °F 30.8 °F 32.0 °F 81% 30.19 in 7.0 mi NE 9.2 mph - N/A   Overcast
1:15 PM 37.4 °F 30.8 °F 32.0 °F 81% 30.18 in 8.0 mi NE 9.2 mph - N/A   Overcast
1:35 PM 37.4 °F 30.8 °F 32.0 °F 81% 30.18 in 8.0 mi NE 9.2 mph - N/A   Overcast
1:55 PM 37.4 °F 31.4 °F 32.0 °F 81% 30.18 in 8.0 mi ENE 8.1 mph - N/A   Overcast
2:35 PM 37.4 °F 30.8 °F 32.0 °F 81% 30.18 in 8.0 mi NE 9.2 mph - N/A   Overcast
2:55 PM 37.4 °F 31.4 °F 32.0 °F 81% 30.17 in 9.0 mi ENE 8.1 mph - N/A   Overcast
3:15 PM 37.4 °F 33.8 °F 32.0 °F 81% 30.19 in 8.0 mi NE 4.6 mph - N/A   Overcast
3:35 PM 37.4 °F 32.8 °F 32.0 °F 81% 30.19 in 8.0 mi North 5.8 mph - N/A   Overcast
4:15 PM 37.4 °F 30.8 °F 32.0 °F 81% 30.20 in 10.0 mi NE 9.2 mph - N/A   Overcast
4:35 PM 37.4 °F 30.8 °F 32.0 °F 81% 30.20 in 9.0 mi ENE 9.2 mph - N/A   Overcast
4:55 PM 37.4 °F - 32.0 °F 81% 30.22 in 9.0 mi Calm Calm - N/A   Overcast
5:35 PM 37.4 °F 33.8 °F 32.0 °F 81% 30.21 in 10.0 mi NE 4.6 mph - N/A   Overcast
5:55 PM 37.4 °F 32.1 °F 32.0 °F 81% 30.23 in 9.0 mi NNE 6.9 mph - N/A   Overcast
6:15 PM 37.4 °F 32.1 °F 32.0 °F 81% 30.23 in 8.0 mi NNE 6.9 mph - N/A   Overcast
6:35 PM 37.4 °F 32.1 °F 33.8 °F 87% 30.23 in 4.0 mi NE 6.9 mph - N/A   Overcast
6:55 PM 37.4 °F 33.8 °F 33.8 °F 87% 30.24 in 2.5 mi NE 4.6 mph - N/A   Overcast
7:15 PM 35.6 °F 29.9 °F 35.6 °F 100% 30.23 in 1.8 mi NE 6.9 mph - N/A   Overcast
7:35 PM 35.6 °F 30.7 °F 35.6 °F 100% 30.24 in 1.5 mi NE 5.8 mph - N/A   Overcast
7:55 PM 35.6 °F 31.7 °F 35.6 °F 100% 30.23 in 1.8 mi NE 4.6 mph - N/A   Overcast
8:15 PM 35.6 °F 29.9 °F 35.6 °F 100% 30.23 in 1.8 mi NE 6.9 mph - N/A   Overcast
8:35 PM 35.6 °F 32.8 °F 35.6 °F 100% 30.22 in 1.5 mi ENE 3.5 mph - N/A   Overcast
8:55 PM 37.4 °F 32.8 °F 35.6 °F 93% 30.23 in 1.8 mi ENE 5.8 mph - N/A   Overcast
9:15 PM 37.4 °F 33.8 °F 35.6 °F 93% 30.23 in 1.8 mi ENE 4.6 mph - N/A   Overcast
9:35 PM 37.4 °F 33.8 °F 35.6 °F 93% 30.22 in 1.2 mi ENE 4.6 mph - N/A   Overcast
10:15 PM 37.4 °F - 35.6 °F 93% 30.22 in 1.2 mi Calm Calm - N/A   Overcast
10:35 PM 37.4 °F 32.8 °F 37.4 °F 100% 30.22 in 1.2 mi NNE 5.8 mph - N/A   Overcast
10:55 PM 37.4 °F 33.8 °F 37.4 °F 100% 30.22 in 1.0 mi NNE 4.6 mph - N/A   Overcast
11:15 PM 37.4 °F 33.8 °F 37.4 °F 100% 30.22 in 1.0 mi NNE 4.6 mph - N/A   Overcast
11:35 PM 37.4 °F 32.8 °F 37.4 °F 100% 30.21 in 1.0 mi NNE 5.8 mph - N/A   Overcast
11:55 PM 37.4 °F - 37.4 °F 100% 30.21 in 1.0 mi Calm Calm - N/A   Overcast